Weather History for Yuma MCAS, AZ

Change the Weather History Date:

Tuesday, February 5, 2013

  Actual Average Record
Temperature  
Mean Temperature 65 °F 60 °F  
Max Temperature 79 °F 72 °F 90 °F (1963)
Min Temperature 51 °F 49 °F 33 °F (1956)
Degree Days  
Heating Degree Days 0 5  
Month to date heating degree days 3 25  
Since 1 July heating degree days 524 533  
Cooling Degree Days 0 1  
Month to date cooling degree days 2 4  
Year to date cooling degree days 5 10  
Growing Degree Days 15 (Base 50)    
Moisture  
Dew Point 37 °F    
Average Humidity 39    
Maximum Humidity 61    
Minimum Humidity 16    
Precipitation  
Precipitation 0.00 in 0.01 in 0.26 in (1890)
Month to date precipitation T 0.06  
Year to date precipitation 1.02 0.43  
Sea Level Pressure  
Sea Level Pressure 29.93 in    
Wind  
Wind Speed 2 mph (NE)    
Max Wind Speed 10 mph    
Max Gust Speed 13 mph    
Visibility 10 miles    
Events      
T = Trace of Precipitation, MM = Missing Value Source: NWS Daily Summary

Daily Weather History Graph

Daily Weather History Graph

Search for Another Location

Airport:

Trip Planner

Search our weather history database for the weather conditions in past years. The results will help you decide how hot, cold, wet, or windy it might be!

Date:

Astronomy

Feb. 05, 2013 Rise Set
Actual Time 7:29 AM MST 6:15 PM MST
Civil Twilight 7:04 AM MST 6:41 PM MST
Nautical Twilight 6:35 AM MST 7:10 PM MST
Astronomical Twilight 6:06 AM MST 7:39 PM MST
Moon 3:10 AM MST (2/5) 1:43 PM MST (2/5)
Length of Visible Light 11h 36m
Length of Day
10h 45m
Waning Crescent, 26% of the Moon is Illuminated
Feb 5
Waning Crescent
Feb 10
New
Feb 17
First Quarter
Feb 25
Full
Mar 4
Last Quarter

Hourly Weather History & Observations

Time (MST) Temp. Dew Point Humidity Pressure Visibility Wind Dir Wind Speed Gust Speed Precip Events Conditions
12:55 AM 57.0 °F 41.0 °F 55% 29.97 in 10.0 mi Calm Calm - N/A   Clear
1:55 AM 55.9 °F 39.9 °F 55% 29.96 in 10.0 mi ENE 4.6 mph - N/A   Clear
2:55 AM 55.9 °F 37.9 °F 51% 29.95 in 10.0 mi Calm Calm - N/A   Clear
3:55 AM 55.9 °F 37.0 °F 49% 29.95 in 10.0 mi Calm Calm - N/A   Clear
4:55 AM 54.0 °F 39.0 °F 57% 29.95 in 10.0 mi Calm Calm - N/A   Clear
5:55 AM 53.1 °F 39.9 °F 61% 29.96 in 10.0 mi Calm Calm - N/A   Clear
6:55 AM 52.0 °F 39.0 °F 61% 29.96 in 10.0 mi NE 3.5 mph - N/A   Clear
7:55 AM 54.0 °F 37.9 °F 55% 29.97 in 10.0 mi NE 5.8 mph - N/A   Clear
8:55 AM 60.1 °F 37.0 °F 42% 29.98 in 10.0 mi NNE 5.8 mph - N/A   Clear
9:55 AM 63.0 °F 37.9 °F 40% 29.99 in 10.0 mi NNE 8.1 mph - N/A   Clear
10:55 AM 68.0 °F 39.0 °F 35% 30.01 in 10.0 mi North 5.8 mph - N/A   Clear
11:55 AM 72.0 °F 37.0 °F 28% 30.00 in 10.0 mi Calm Calm - N/A   Partly Cloudy
12:55 PM 75.0 °F 33.1 °F 22% 29.97 in 10.0 mi Calm Calm - N/A   Partly Cloudy
1:55 PM 75.9 °F 34.0 °F 22% 29.93 in 10.0 mi West 3.5 mph - N/A   Partly Cloudy
2:55 PM 77.0 °F 30.9 °F 19% 29.90 in 10.0 mi Calm Calm - N/A   Partly Cloudy
3:55 PM 78.1 °F 28.9 °F 17% 29.88 in 10.0 mi Calm Calm - N/A   Partly Cloudy
4:55 PM 77.0 °F 28.9 °F 17% 29.88 in 10.0 mi Variable 4.6 mph - N/A   Scattered Clouds
5:55 PM 75.0 °F 30.9 °F 20% 29.87 in 10.0 mi SSW 4.6 mph - N/A   Mostly Cloudy
6:58 PM 71.1 °F 35.1 °F 27% 29.87 in 10.0 mi Calm Calm - N/A   Mostly Cloudy
7:00 PM 71.1 °F 35.1 °F 27% 29.87 in 10.0 mi Calm Calm - N/A   Mostly Cloudy
7:55 PM 66.0 °F 39.0 °F 37% 29.88 in 10.0 mi Calm Calm - N/A   Mostly Cloudy
8:55 PM 64.9 °F 39.0 °F 39% 29.89 in 10.0 mi Calm Calm - N/A   Mostly Cloudy
9:55 PM 62.1 °F 42.1 °F 48% 29.90 in 10.0 mi Calm Calm - N/A   Mostly Cloudy
10:55 PM 60.1 °F 44.1 °F 55% 29.90 in 10.0 mi South 3.5 mph - N/A   Mostly Cloudy
11:55 PM 61.0 °F 42.1 °F 50% 29.90 in 10.0 mi ESE 3.5 mph - N/A   Mostly Cloudy